Moline, IL

6:48 PM CDT on April 27, 2017 (GMT -0500)
Quad-City International

Weather History for KMLI - April, 2014

Change the Weather History Date:

Saturday, April 26, 2014

  Actual Average Record
Temperature  
Mean Temperature 58 °F 55 °F  
Max Temperature 73 °F 66 °F 89 °F (1986)
Min Temperature 42 °F 44 °F 29 °F (2006)
Degree Days  
Heating Degree Days 7 10  
Month to date heating degree days 399 383  
Since 1 July heating degree days 7095 5985  
Cooling Degree Days 0 1  
Month to date cooling degree days 5 10  
Year to date cooling degree days 5 11  
Growing Degree Days 8 (Base 50)    
Moisture  
Dew Point 38 °F    
Average Humidity 57    
Maximum Humidity 83    
Minimum Humidity 31    
Precipitation  
Precipitation 0.02 in 0.13 in 2.47 in (1943)
Month to date precipitation 1.98 3.05  
Year to date precipitation 6.91 9.00  
Snow  
Snow 0.00 in 0.00 in - ()
Month to date snowfall T 0.9  
Since 1 July snowfall 65.1 31.6  
Snow Depth 0.00 in    
Sea Level Pressure  
Sea Level Pressure 29.89 in    
Wind  
Wind Speed 15 mph (East)    
Max Wind Speed 32 mph    
Max Gust Speed 40 mph    
Visibility 10 miles    
Events Thunderstorm    
T = Trace of Precipitation, MM = Missing Value Source: NWS Daily Summary

Daily Weather History Graph

Daily Weather History Graph

Search for Another Location

Airport or City:

Trip Planner

Search our weather history database for the weather conditions in past years. The results will help you decide how hot, cold, wet, or windy it might be!

Date:

Astronomy

Apr. 26, 2014 Rise Set
Actual Time 6:05 AM CDT 7:54 PM CDT
Civil Twilight 5:36 AM CDT 8:24 PM CDT
Nautical Twilight 5:00 AM CDT 9:00 PM CDT
Astronomical Twilight 4:21 AM CDT 9:39 PM CDT
Moon 4:32 AM CDT (4/26) 5:21 PM CDT (4/26)
Length of Visible Light 14h 47m
Length of Day
13h 48m
Waning Crescent, 8% of the Moon is Illuminated
Apr 26
Waning Crescent
Apr 29
New
May 6
First Quarter
May 14
Full
May 21
Last Quarter

Hourly Weather History & Observations

Time (CDT) Temp. Windchill Dew Point Humidity Pressure Visibility Wind Dir Wind Speed Gust Speed Precip Events Conditions
12:52 AM 45.0 °F - 39.9 °F 82% 29.85 in 10.0 mi Calm Calm - N/A   Clear
1:52 AM 48.0 °F - 41.0 °F 77% 29.85 in 10.0 mi Calm Calm - N/A   Mostly Cloudy
2:52 AM 45.0 °F - 39.9 °F 82% 29.83 in 10.0 mi Calm Calm - N/A   Partly Cloudy
3:52 AM 48.0 °F - 41.0 °F 77% 29.84 in 10.0 mi Calm Calm - N/A   Partly Cloudy
4:52 AM 46.9 °F - 41.0 °F 80% 29.86 in 10.0 mi Calm Calm - N/A   Scattered Clouds
5:52 AM 45.0 °F - 39.9 °F 82% 29.87 in 10.0 mi Calm Calm - N/A   Mostly Cloudy
6:52 AM 50.0 °F - 39.9 °F 68% 29.91 in 10.0 mi ENE 12.7 mph - N/A   Mostly Cloudy
7:52 AM 50.0 °F - 39.0 °F 66% 29.92 in 10.0 mi ENE 16.1 mph - N/A   Clear
8:52 AM 54.0 °F - 37.9 °F 55% 29.93 in 10.0 mi ENE 16.1 mph - N/A   Partly Cloudy
9:52 AM 57.9 °F - 39.9 °F 51% 29.92 in 10.0 mi ENE 15.0 mph - N/A   Clear
10:52 AM 61.0 °F - 39.9 °F 46% 29.92 in 10.0 mi ENE 13.8 mph - N/A   Clear
11:52 AM 64.0 °F - 41.0 °F 43% 29.93 in 10.0 mi ENE 12.7 mph 20.7 mph N/A   Unknown
12:52 PM 66.0 °F - 41.0 °F 40% 29.92 in 10.0 mi ENE 13.8 mph - N/A   Clear
1:52 PM 69.1 °F - 42.1 °F 38% 29.91 in 10.0 mi East 12.7 mph - N/A   Clear
2:52 PM 70.0 °F - 41.0 °F 35% 29.89 in 10.0 mi ENE 17.3 mph - N/A   Clear
3:52 PM 72.0 °F - 41.0 °F 33% 29.85 in 10.0 mi ENE 20.7 mph - N/A   Clear
4:52 PM 71.1 °F - 39.9 °F 32% 29.83 in 10.0 mi East 20.7 mph 27.6 mph N/A   Clear
5:52 PM 70.0 °F - 39.9 °F 33% 29.83 in 10.0 mi East 18.4 mph 25.3 mph N/A   Clear
6:52 PM 64.9 °F - 39.9 °F 40% 29.84 in 10.0 mi East 23.0 mph 32.2 mph N/A   Clear
7:52 PM 57.9 °F - 37.0 °F 46% 29.87 in 10.0 mi East 27.6 mph 34.5 mph N/A   Clear
8:52 PM 51.1 °F - 34.0 °F 52% 29.88 in 10.0 mi East 31.1 mph 40.3 mph N/A   Clear
9:52 PM 48.0 °F - 33.1 °F 56% 29.90 in 10.0 mi East 23.0 mph 31.1 mph N/A   Clear
10:52 PM 45.0 °F 36.6 °F 30.0 °F 56% 29.92 in 10.0 mi East 21.9 mph 33.4 mph N/A   Partly Cloudy
11:00 PM 44.6 °F 35.7 °F 30.2 °F 57% 29.93 in 10.0 mi East 24.2 mph 29.9 mph N/A Thunderstorm Partly Cloudy
11:11 PM 44.6 °F 36.9 °F 30.2 °F 57% 29.93 in 10.0 mi East 18.4 mph - N/A Thunderstorm Mostly Cloudy
11:52 PM 43.0 °F 35.1 °F 33.1 °F 68% 29.93 in 10.0 mi East 17.3 mph 25.3 mph 0.02 in   Scattered Clouds